Погода Саран-Пауль

Погода Саран-Пауль : погода сейчас, прогноз погоды и архив. Всё, что Вы хотите узнать о погоде Саран-Пауль!

Хотите узнать прогноз погоды Саран-Пауль? Тогда Вам сюда: Погода Саран-Пауль

Поиск расширенной информации на нашем сайте:

Другие новости

Новости СМИ2

Главная страница сайта

Новости сайта

03.07.2017

Напоминаем, что на нашем специализированном сайте Метеоцентр.Азия вы можете получить высокодетализированные автоматические прогнозы погоды по пунктам России, СНГ и мира в авиационном формате (включающие направление и скорость ветра, видимость, явления погоды, количество и форму облачности, нижнюю и верхнюю границу облачности).


Погода Саран-Пауль - сегодня

Время (UTC), дата Ветер
(°,м/с) 
Видим.   Явления Облачность Т
(°С)
Тd
(°С)
f(%) Тe
(°С)
Pmin
(гПа)
dP
(гПа)
Po
(мм)
O2
(г/м3)
Тmin Tmax R s Состояние
почвы
06 12.08.18 230 (ЮЗ) 20000 м    9/4 600 м кучево-дожд., средняя, верхняя 
[Cb cap|Ac lent|Ci fib]
+14.9 +7.2 60 +15  1000.9  -0.5  748  285           
09 12.08.18 220 (ЮЗ) 20000 м    10/8 600 м кучево-дожд., средняя, верхняя 
[Cb cap|Ac lent|Ci sp]
+15.6 +8.3 62 +16  1000.9  748  284           
12 12.08.18 230 (ЮЗ) 20000 м    9/6 600 м кучево-дожд., средняя, верхняя 
[Cb cap|Ac lent|Ci sp]
+16.1 +10.2 68 +17  1001.6  0.7  749  283           
18 12.08.18 220 (ЮЗ) 50000 м    4/0 средняя, верхняя 
[Ac trans|Ci fib]
+10.9 +10.4 97 +13  1001.8  -0.1  749  288           
21 12.08.18 220 (ЮЗ) 50000 м    9/0 кучево-дожд., средняя, верхняя 
[Cb cap|Ac trans|Ci fib]
+10.6 +10.5 99 +14  1001.5  -0.3  749  288           
00 13.08.18 210 (ЮЗ) 20000 м    9/0 средняя, верхняя 
[Ac trans|Ci sp]
+12.6 +11.6 94 +16  1001.4  0.1  748  286           
03 13.08.18 180 (Ю) 20000 м    10/0 средняя 
[Ac As]
+14.4 +12.8 90 +21  1001.2  0.1  748  284  +8.4        влажная 
06 13.08.18 170 (Ю) 20000 м    8/3 600 м кучево-дожд., средняя, верхняя 
[Cb cap|Ac trans|Ci fib]
+20.4 +14.9 71 +29  1000.2  -1  748  277           
09 13.08.18 170 (Ю) 20000 м    8/5 1000 м средняя, верхняя 
[Cu hum|Ac trans|Ci fib]
+25 +14.1 51 +32  998  -2.1  746  273           
12 13.08.18 190 (Ю) 20000 м    9/6 600 м кучево-дожд., средняя, верхняя 
[Cb cap|Ac trans|Ci fib]
+23.8 +15.2 59 +33  996.9  -1.2  745  273           
15 13.08.18 160 (Ю) 10 км  гроза, ливневой дождь  8/5 600 м кучево-дожд., средняя, верхняя 
[Cb cap|Ac lent|Ci fib]
+17.1 +16.2 94 +29  995.8  -1.1  744  279    +26.3     
18 13.08.18 170 (Ю) 14000 м  слаб. ливневой дождь, в посл. час гроза  10/0 средняя 
[Ac As]
+15.7 +15.4 98 +26  996.1  0.2  745  280           
21 13.08.18 200 (Ю) 22000 м    10/0 средняя 
[Ac As]
+15.3 +15 98 +25  995.5  -0.6  744  281           
00 14.08.18 190 (Ю) 20000 м    8/6 600 м кучево-дожд., верхняя 
[Cb cap|Ci fib]
+14.5 +14.1 97 +22  995.6  0.1  744  282           
03 14.08.18 200 (Ю) 20000 м    6/4 600 м кучево-дожд., верхняя 
[Cb cap|Ci fib]
+16 +12.5 80 +22  996  0.5  744  281  +14.1    0.5    влажная 
06 14.08.18 200 (Ю) 5{11}  10 км    8/8 600 м кучево-дожд. 
[Cb cap]
+17.3 +10 62 +18  997.2  1.2  745  281           
15 14.08.18 230 (ЮЗ) 3{11}  20000 м    4/3 600 м средняя 
[Sc diur, vesp|Ac lent]
+14.6 +9 69 +15  1003.2  2.2  750  285    +18.7       
18 14.08.18 200 (Ю) 25000 м    3/0 средняя 
[Ac trans]
+11.3 +8.6 83 +12  1004.9  1.6  751  289           
21 14.08.18 240 (ЮЗ) 27000 м    1/0 средняя 
[Ac lent]
+9.4 +8.5 94 +9  1005.9  0.9  752  291           
00 15.08.18 240 (ЮЗ) 20000 м    3/0 средняя 
[Ac trans]
+7.5 +7.4 99 +7  1007.4  1.5  753  294           
03 15.08.18 330 (СЗ) 20000 м    1/0 средняя 
[Ac lent]
+11.9 +9.3 84 +12  1008.5  1.1  754  289  +6.9        влажная 
06 15.08.18 310 (СЗ) 20000 м    4/4 600 м кучево-дожд. 
[Cb cap]
+16.6 +8.6 59 +18  1008.5  754  285           
09 15.08.18 350 (С) 20000 м    9/3 600 м кучево-дожд., средняя, верхняя 
[Cb cap|Ac lent|Ci sp]
+17.4 +7.2 51 +18  1009  0.5  754  285           
12 15.08.18 280 (З) 20000 м    4/0 средняя 
[Ac lent]
+17.1 +6.4 49 +17  1009.5  0.5  755  285           
18 15.08.18 220 (ЮЗ) 27000 м    6/0 средняя 
[Ac lent]
+9.6 +6.9 83 +10  1010.8  0.4  755  293           
Время (UTC), дата Ветер
(°,м/с) 
Видим.   Явления Облачность Т
(°С)
Тd
(°С)
f(%) Тe
(°С)
Pmin
(гПа)
dP
(гПа)
Po
(мм)
O2
(г/м3)
Тmin Tmax R s Состояние
почвы

Для получения пояснительной информации подведите курсор к названию столбца.

ПОГОДА Саран-Пауль - архив

Всё, что Вы хотите узнать о погоде Саран-Пауль - удобно и подробно!

Выберите нужную дату (начиная с 1 января 2015* года) и нажмите кнопку "Найти".
Будут отображены архивные сводки погоды по пункту Саран-Пауль, начиная с указанной даты.


Отображать данные в формате CSV (для использования в таблицах Excel)


Внимание! Наш архив погоды предназначен исключительно для личного некоммерческого использования в познавательных целях. Если Вам необходимы официальные справки о состоянии погоды (для производственных, юридических, коммерческих и т.п. целей), обращайтесь в органы Росгидромета.

*Примечание: данная дата относится к архиву по метеостанциям СССР (Россия, СНГ, Балтия).
Архив по метеостанциям Зарубежной Европы и Азии (кроме Китая) хранится 10 дней, по другим регионам земного шара (Китай, Африка, Америка, Австралия, Океания) - 1 день.

Саран-Пауль - район местоположения метеостанции


Название, широта, долгота, высота метеостанции:
Саран-Пауль 64.3°ш. 60.9°д. 29 м над ур. моря [Российская Федерация]

Дополнительная информация

В oтличие oт бoльшинства пoгoдных сайтoв мы публикуем пoдрoбную метеoинфoрмацию в детальнoм прoфессиoнальнoм фoрмате.

Характеристики температуры и влажнoсти вoздуха измеряются на высoте 2 м в тени вдали oт зданий и деревьев.
Скoрoсть ветра измеряется на высoте 10 м (на урoвне рoста челoвека скoрoсть ветра ниже в 1.5-2 раза). Если метеoстанция нахoдится в гoрoде или в лесу, тo скoрoсть ветра занижена на 2-4 м/с пo сравнению с oткрытым местoм. Скoрoсть ветра над акватoриями крупных рек и oзёр, а также на вершинах хoлмoв на 2-5 м/с выше, чем в oбычных услoвиях.
Атмoсфернoе давление в разных тoчках местнoсти мoжет значительнo oтличаться oт давления на метеoстанции, в зависимoсти oт услoвий рельефа (при пoдъёме на 10 м давление пoнижается примернo на 1 мм рт.ст.).